TimeCST,TemperatureF,Dew PointF,Humidity,Sea Level PressureIn,VisibilityMPH,Wind Direction,Wind SpeedMPH,Gust SpeedMPH,PrecipitationIn,Events,Conditions,WindDirDegrees,DateUTC
12:53 AM,17.1,12.9,84,30.07,10.0,South,4.6,-,0.00,,Overcast,180,2012-12-14 06:53:00
1:53 AM,18.0,14.0,84,30.07,10.0,South,3.5,-,N/A,,Overcast,170,2012-12-14 07:53:00
2:41 AM,19.4,15.8,86,30.07,9.0,SSE,3.5,-,N/A,,Overcast,150,2012-12-14 08:41:00
2:53 AM,19.0,15.1,85,30.14,10.0,SE,3.5,-,N/A,,Overcast,130,2012-12-14 08:53:00
3:42 AM,19.4,15.8,86,30.06,10.0,Calm,Calm,-,N/A,,Overcast,0,2012-12-14 09:42:00
3:53 AM,19.0,16.0,88,30.13,10.0,SE,3.5,-,N/A,,Overcast,130,2012-12-14 09:53:00
4:46 AM,19.4,15.8,86,30.04,10.0,SE,5.8,-,N/A,,Overcast,140,2012-12-14 10:46:00
4:53 AM,19.9,16.0,85,30.11,10.0,Variable,4.6,-,N/A,,Overcast,0,2012-12-14 10:53:00
5:10 AM,19.4,15.8,86,30.03,9.0,SE,4.6,-,N/A,,Overcast,140,2012-12-14 11:10:00
5:41 AM,19.4,17.6,93,30.03,9.0,Variable,3.5,-,0.00,,Overcast,0,2012-12-14 11:41:00
5:53 AM,19.4,17.6,93,30.03,10.0,SSE,5.8,-,N/A,,Overcast,150,2012-12-14 11:53:00
6:02 AM,19.4,17.6,93,30.03,8.0,SSE,5.8,-,N/A,,Overcast,160,2012-12-14 12:02:00
6:20 AM,19.4,19.4,100,30.03,4.0,SSE,5.8,-,N/A,,Overcast,160,2012-12-14 12:20:00
6:53 AM,19.9,19.0,96,30.10,2.0,South,6.9,-,N/A,,Overcast,180,2012-12-14 12:53:00
7:03 AM,19.4,19.4,100,30.03,1.8,South,4.6,-,N/A,,Overcast,170,2012-12-14 13:03:00
7:18 AM,19.4,19.4,100,30.03,3.0,South,4.6,-,N/A,,Overcast,170,2012-12-14 13:18:00
7:53 AM,19.0,18.0,96,30.10,4.0,SSE,5.8,-,N/A,,Overcast,150,2012-12-14 13:53:00
8:38 AM,17.6,15.8,93,30.03,10.0,SE,5.8,-,N/A,,Scattered Clouds,140,2012-12-14 14:38:00
8:53 AM,16.0,14.0,92,30.10,10.0,SE,6.9,-,N/A,,Clear,140,2012-12-14 14:53:00
9:53 AM,16.0,12.9,88,30.09,10.0,SE,8.1,-,N/A,,Clear,140,2012-12-14 15:53:00
10:53 AM,19.9,14.0,78,30.08,10.0,SE,8.1,-,N/A,,Clear,130,2012-12-14 16:53:00
11:53 AM,24.1,16.0,71,30.05,10.0,ESE,5.8,-,N/A,,Clear,120,2012-12-14 17:53:00
12:53 PM,28.9,19.0,67,30.01,10.0,Variable,5.8,-,N/A,,Unknown,0,2012-12-14 18:53:00
1:53 PM,32.0,19.9,61,29.96,10.0,SSE,9.2,-,0.02,,Unknown,150,2012-12-14 19:53:00
2:53 PM,32.0,19.9,61,29.94,10.0,SE,8.1,-,0.01,,Clear,140,2012-12-14 20:53:00
3:53 PM,30.9,19.9,64,29.93,10.0,SE,4.6,-,N/A,,Clear,140,2012-12-14 21:53:00
4:53 PM,28.0,21.0,75,29.92,10.0,SE,6.9,-,N/A,,Clear,140,2012-12-14 22:53:00
5:53 PM,26.1,19.9,78,29.91,10.0,SE,8.1,17.3,N/A,,Clear,140,2012-12-14 23:53:00
6:53 PM,25.0,19.9,81,29.91,10.0,SE,8.1,-,N/A,,Clear,140,2012-12-15 00:53:00
7:53 PM,23.0,19.9,88,29.90,10.0,SE,6.9,-,N/A,,Clear,140,2012-12-15 01:53:00
8:53 PM,21.9,19.9,92,29.91,10.0,SE,5.8,-,N/A,,Clear,140,2012-12-15 02:53:00
9:53 PM,21.9,19.9,92,29.89,9.0,SE,5.8,-,N/A,,Clear,140,2012-12-15 03:53:00
10:53 PM,23.0,19.9,88,29.87,8.0,SE,5.8,-,N/A,,Clear,140,2012-12-15 04:53:00
11:53 PM,21.9,19.9,92,29.85,7.0,SE,5.8,-,N/A,,Clear,140,2012-12-15 05:53:00